Regional Weather Roundup
Issued by NWS

Home | Current Version | Previous Version | Text Only | Print | Product List | Glossary On
Versions: 1 2 3 4 5 6 7 8 9 10 11 12 13 14 15 16 17 18 19 20 21 22 23 24 25 26 27 28 29 30 31 32 33 34 35 36 37 38 39 40 41 42 43 44 45 46 47 48 49 50
000
ASUS44 KOUN 012310
RWROK

WEATHER ROUNDUP FOR OKLAHOMA
NATIONAL WEATHER SERVICE NORMAN OK
500 PM CST SUN FEB 01 2015

NOTE: "FAIR" INDICATES FEW OR NO CLOUDS BELOW 12,000 FEET WITH NO
      SIGNIFICANT WEATHER AND/OR OBSTRUCTIONS TO VISIBILITY.

OKZ001>007-009>012-014-015-017-020000-
NORTHWEST OKLAHOMA AND THE PANHANDLE

CITY           SKY/WX    TMP DP  RH WIND       PRES   REMARKS
GAGE           SUNNY     33  14  45 N23G35    30.20R WCI  21
ENID/WOODRING  PTCLDY    32  19  59 NW25G32   30.19R WCI  19
$$

OKZ016-021>023-033>039-044-045-020000-
SOUTHWEST OKLAHOMA

CITY           SKY/WX    TMP DP  RH WIND       PRES   REMARKS
LAWTON/REGL    SUNNY     44  22  41 N25G31    30.15R
LAWTON/FT SILL SUNNY     43  22  44 N22G32    30.13R
FREDERICK      SUNNY     43  26  51 N25G35    30.14R
CLINTON        SUNNY     37  17  44 N29G43    30.18R WCI  25
HOBART         SUNNY     40  18  41 N29G43    30.18R WCI  29
ALTUS AFB      SUNNY     43  20  39 N28G33    30.18R
$$

OKZ018>020-024>031-020000-
CENTRAL OKLAHOMA

CITY           SKY/WX    TMP DP  RH WIND       PRES   REMARKS
OKLAHOMA CITY  PTCLDY    37  20  50 N31G38    30.14R WCI  24
OKC/WILEY POST PTCLDY    35  20  54 N24G37    30.16R WCI  23
OKC/TINKER AFB MOCLDY    36  21  53 NW28G43   30.14R WCI  24
STILLWATER     CLOUDY    30  17  58 N23G32    30.18R WCI  17
GUTHRIE        MOCLDY    34  19  54 N13G22    30.18R WCI  25
$$

OKZ008-013-054>072-020000-
NORTHEAST OKLAHOMA

CITY           SKY/WX    TMP DP  RH WIND       PRES   REMARKS
TULSA          CLOUDY    30  17  58 NW21G35   30.12R WCI  17
TULSA/JONES    CLOUDY    31  17  56 NW13G28   30.14R WCI  21
PONCA CITY     CLOUDY    27  14  58 N24G38    30.19R WCI  12
BARTLESVILLE   CLOUDY    26  16  65 N8G18     30.17R WCI  18
MUSKOGEE       CLOUDY    32  20  61 NW25G33   30.12R WCI  19
$$

OKZ032-040>043-046>053-073>077-020000-
SOUTH CENTRAL/SOUTHEAST OKLAHOMA

CITY           SKY/WX    TMP DP  RH WIND       PRES   REMARKS
ARDMORE/DWNTWN SUNNY     41  23  48 N10G23    30.14R
MCALESTER      FLURRIES  38  24  57 NW22G30   30.10R WCI  27
$$




USA.gov is the U.S. government's official web portal to all federal, state and local government web resources and services.